EW4498 Weather Reports


Display with metric or nautical units.
time (UTC)temp
F
wind
direction
speed
MPH
gust
MPH
rain 1hr
in
rain 24hr
in
rain mn
in
humidity
%
barometer
mb
20260904153020 62 229 3.0 8.0 0.00 0.31 0.31 85 999.4
20260904151512 61 219 1.0 8.0 0.01 0.31 0.31 87 999.5
20260904150025 60 235 2.0 7.0 0.01 0.31 0.31 87 999.6
20260904144511 60 228 0.0 4.0 0.02 0.31 0.31 89 999.5
20260904143013 60 252 0.0 6.0 0.05 0.31 0.31 90 999.7
20260904141509 60 292 1.0 5.0 0.05 0.31 0.31 90 999.9
20260904140008 61 289 3.0 8.0 0.06 0.31 0.31 91 999.8
20260904134556 61 217 3.0 5.0 0.05 0.31 0.28 92 999.8
20260904133143 61 237 2.0 8.0 0.03 0.28 0.28 92 999.9
20260904131551 61 237 3.0 8.0 0.02 0.28 0.26 92 999.8
20260904130144 61 227 2.0 7.0 0.02 0.27 0.25 92 999.5
20260904124611 61 217 3.0 8.0 0.03 0.27 0.24 92 999.6
20260904123005 61 211 3.0 8.0 0.04 0.27 0.24 92 999.7
20260904121550 61 209 3.0 7.0 0.05 0.26 0.24 92 1000.0
20260904120015 61 194 3.0 6.0 0.06 0.25 0.23 92 1000.3
20260904114558 61 215 4.0 8.0 0.05 0.27 0.21 91 1000.5
20260904113033 61 216 5.0 9.0 0.04 0.25 0.20 91 1000.8
20260904111638 61 195 4.0 11.0 0.05 0.24 0.19 91 1000.6
20260904110059 61 210 2.0 5.0 0.09 0.23 0.17 92 1000.8
20260904104502 61 249 2.0 6.0 0.12 0.23 0.17 91 1001.1
20260904103116 61 261 0.0 5.0 0.13 0.22 0.16 91 1001.3
20260904101654 61 207 2.0 6.0 0.11 0.20 0.14 91 1001.5
20260904100058 61 224 0.0 4.0 0.05 0.14 0.08 91 1001.7
20260904094548 61 234 3.0 10.0 0.02 0.13 0.05 90 1001.9
20260904093148 61 211 4.0 8.0 0.00 0.11 0.03 90 1002.2
20260904091558 61 200 5.0 9.0 0.01 0.11 0.03 90 1002.6
20260904090036 61 223 3.0 8.0 0.01 0.11 0.03 91 1002.6
20260904084531 61 214 6.0 9.0 0.02 0.12 0.03 91 1002.9
20260904083040 60 198 4.0 7.0 0.02 0.12 0.03 91 1003.2
20260904081526 60 223 3.0 7.0 0.01 0.11 0.02 91 1003.3
20260904080025 59 188 3.0 8.0 0.02 0.11 0.02 91 1003.3
20260904074525 59 211 1.0 6.0 0.01 0.11 0.02 90 1003.5
20260904073026 59 198 2.0 5.0 0.01 0.11 0.02 90 1003.5
20260904071520 59 196 3.0 6.0 0.01 0.11 0.02 90 1003.7
20260904070017 59 208 2.0 6.0 0.00 0.10 0.01 90 1003.9
20260904064514 59 205 3.0 6.0 0.00 0.12 0.01 90 1004.4
20260904063022 58 205 2.0 5.0 0.01 0.12 0.01 89 1004.4
20260904061510 58 219 1.0 5.0 0.01 0.12 0.01 89 1004.5
20260904060009 58 219 3.0 5.0 0.01 0.12 0.01 88 1004.9
20260904054505 58 219 2.0 5.0 0.01 0.13 0.01 87 1005.0
20260904053003 58 226 1.0 4.0 0.00 0.12 0.00 86 1005.2
20260904051501 59 224 3.0 5.0 0.00 0.12 0.00 85 1005.4
20260904050100 59 240 2.0 5.0 0.00 0.12 0.00 85 1005.6
20260904044557 59 234 2.0 7.0 0.00 0.12 0.00 84 1005.4
20260904043056 59 211 2.0 6.0 0.00 0.12 0.00 84 1005.6
20260904041553 59 240 3.0 6.0 0.00 0.12 0.00 84 1005.7
20260904034553 59 234 4.0 10.0 0.00 0.13 0.00 84 1006.0
20260904033046 59 223 2.0 9.0 0.00 0.13 0.00 84 1006.1
20260904031545 60 216 4.0 9.0 0.00 0.13 0.00 83 1006.4
20260904030042 60 242 2.0 6.0 0.00 0.13 0.00 83 1006.4
20260904024547 60 252 3.0 9.0 0.00 0.13 0.00 83 1006.3
20260904023049 60 225 3.0 9.0 0.00 0.13 0.00 83 1006.4
20260904021537 60 217 3.0 10.0 0.00 0.13 0.00 83 1006.5
20260904020037 60 256 3.0 10.0 0.00 0.13 0.00 83 1006.8
20260904014541 60 217 3.0 7.0 0.00 0.13 0.00 83 1006.7
20260904013038 61 226 3.0 9.0 0.00 0.13 0.00 83 1006.6
20260904011536 61 232 2.0 10.0 0.00 0.13 0.00 84 1006.9
20260904010039 61 293 1.0 9.0 0.00 0.13 0.00 84 1006.9
20260904004529 61 238 3.0 11.0 0.00 0.13 0.00 84 1007.1
20260904003033 61 231 2.0 11.0 0.00 0.13 0.00 84 1007.1
20260904001528 61 236 3.0 12.0 0.00 0.13 0.00 84 1007.1
20260904000025 61 223 3.0 8.0 0.00 0.13 0.00 83 1007.1
20260903234523 61 263 3.0 9.0 0.00 0.13 0.00 83 1007.3
20260903233022 61 229 4.0 8.0 0.00 0.13 0.00 84 1007.2
20260903231530 61 240 4.0 9.0 0.00 0.13 0.00 85 1007.2
20260903230025 61 236 4.0 9.0 0.00 0.13 0.00 85 1007.4
20260903224531 61 237 2.0 12.0 0.00 0.13 0.00 86 1007.4
20260903223015 62 229 4.0 12.0 0.00 0.13 0.00 86 1007.5
20260903221512 62 223 3.0 12.0 0.00 0.13 0.00 87 1007.7
20260903220010 61 257 2.0 7.0 0.00 0.13 0.00 87 1007.7
20260903214524 61 219 3.0 8.0 0.00 0.13 0.13 87 1007.4
20260903213006 61 225 4.0 11.0 0.00 0.13 0.13 87 1007.4
20260903211528 62 288 2.0 9.0 0.00 0.13 0.13 87 1007.5
20260903210007 62 206 3.0 9.0 0.00 0.13 0.13 87 1007.5
20260903204526 62 240 3.0 7.0 0.00 0.13 0.13 86 1007.6
20260903203006 62 313 1.0 7.0 0.00 0.13 0.13 84 1007.6
20260903201505 63 234 3.0 11.0 0.00 0.13 0.13 84 1007.6
20260903200005 63 300 3.0 11.0 0.00 0.13 0.13 84 1007.3
20260903194543 64 235 4.0 14.0 0.00 0.13 0.13 83 1007.4
20260903193148 64 162 4.0 10.0 0.00 0.13 0.13 85 1007.4
20260903191554 64 194 2.0 13.0 0.00 0.13 0.13 85 1007.3
20260903190044 64 221 3.0 13.0 0.00 0.13 0.13 85 1007.2
20260903184542 64 240 4.0 12.0 0.00 0.13 0.13 85 1007.2
20260903183145 65 244 7.0 14.0 0.00 0.13 0.13 86 1007.2
20260903181541 65 244 2.0 11.0 0.00 0.13 0.13 86 1006.9
20260903180044 65 240 3.0 8.0 0.00 0.13 0.13 86 1006.8
20260903174645 65 219 5.0 9.0 0.00 0.16 0.13 86 1006.6
20260903173050 66 253 4.0 9.0 0.00 0.16 0.13 86 1006.6
20260903171641 66 238 7.0 12.0 0.00 0.16 0.13 85 1006.5
20260903170059 67 207 4.0 10.0 0.00 0.16 0.13 86 1006.5
20260903164546 67 221 6.0 11.0 0.00 0.17 0.13 86 1006.4
20260903163143 67 238 4.0 15.0 0.00 0.17 0.13 85 1006.4
20260903161559 67 258 7.0 15.0 0.00 0.17 0.13 86 1006.4
20260903160128 67 200 4.0 12.0 0.00 0.17 0.13 87 1006.4
20260903154605 67 240 3.0 10.0 0.00 0.21 0.13 88 1006.5